EHI
2 7 16 24 22 11 2 0 0 0 0 0 0 0 0 0 0 0 0 0 1 2 4 5 8 8 7 6 3 1 2 2 2 1 0 0 0 0 0 0 0 1 2 3 3 2 2 2 3
4 11 22 26 18 6 1 0 0 0 0 0 0 0 0 0 0 0 0 0 1 2 4 6 9 10 8 7 4 2 2 3 3 2 1 0 0 0 0 0 0 2 3 3 3 2 2 3 3
10 18 28 25 11 2 0 0 0 0 0 0 0 0 0 0 0 0 0 0 0 1 4 7 10 10 9 8 6 4 4 3 3 3 1 0 0 0 0 0 0 1 2 4 3 3 4 4 3
19 24 26 17 5 0 0 0 0 0 0 0 0 0 0 0 0 0 0 0 0 2 5 8 10 10 10 9 8 8 6 5 4 4 2 1 0 0 0 0 0 0 1 3 4 4 4 3 3
23 24 20 8 1 0 0 0 0 0 0 0 0 0 0 0 0 0 0 0 0 2 5 8 10 11 11 10 9 9 9 7 6 5 4 3 1 0 0 0 0 0 0 2 3 3 2 2 2
21 20 13 4 0 0 0 0 0 0 0 0 0 0 0 0 0 0 0 0 0 1 3 7 10 12 14 12 9 9 10 9 8 7 5 4 2 1 0 0 1 0 0 0 1 1 0 1 2
16 13 7 2 0 0 0 0 0 0 0 0 0 0 0 0 0 0 0 0 0 1 2 4 7 11 13 12 11 10 10 9 9 8 6 4 2 1 0 0 0 0 0 0 0 1 0 1 2
8 6 3 0 0 0 0 0 0 0 0 0 0 0 0 0 0 0 0 0 0 1 2 2 3 6 8 9 10 10 9 8 9 9 8 6 3 2 0 0 1 1 1 1 1 3 2 3 4
4 3 1 0 0 0 0 0 0 0 0 0 0 1 1 1 0 0 0 0 0 1 2 1 0 1 2 5 8 9 9 8 8 9 9 8 5 2 0 1 3 3 2 2 3 4 5 6 5
2 2 1 0 0 0 0 0 0 0 1 1 1 3 2 1 0 0 0 0 0 1 1 0 0 1 1 3 6 8 8 8 9 9 10 9 6 2 1 3 4 5 6 5 4 5 6 5 5
1 1 0 0 0 0 0 0 0 0 1 2 3 3 3 1 0 0 0 0 0 0 0 0 1 2 3 4 6 6 6 7 8 9 9 8 6 4 4 5 6 7 8 7 7 7 5 3 3
0 0 0 0 0 0 0 0 0 0 2 3 3 2 2 1 0 0 1 1 1 0 0 2 4 6 8 10 9 6 4 4 6 8 8 7 8 8 8 10 12 11 9 9 9 8 5 3 3
0 0 0 0 0 0 0 0 0 0 2 4 3 1 1 0 0 0 1 2 2 1 0 3 7 10 12 16 14 8 5 4 5 7 7 8 10 13 13 13 15 14 11 10 9 7 5 3 4
0 0 0 0 0 0 0 0 0 0 2 4 3 2 1 1 0 1 1 3 3 2 2 4 8 13 15 16 15 11 7 6 7 8 10 10 12 16 15 14 14 13 12 10 9 8 6 5 5
0 0 0 0 0 0 0 0 0 1 2 4 5 5 3 2 1 2 3 4 5 6 6 6 9 14 15 13 13 11 8 7 8 11 14 14 14 16 17 14 12 13 13 12 11 10 7 6 6
0 0 0 0 0 0 0 0 0 1 3 4 6 6 5 3 2 2 5 5 6 9 10 8 8 12 14 13 12 10 8 7 8 12 16 17 16 17 17 14 12 13 15 15 13 11 9 7 7
0 0 0 0 0 0 0 0 0 1 2 5 8 7 6 5 4 5 6 7 8 11 13 11 9 10 13 14 13 11 9 8 8 12 17 19 18 16 16 14 13 13 14 15 14 13 11 10 9
0 0 0 0 0 0 0 0 0 0 1 4 7 8 7 7 7 7 9 10 11 15 18 16 14 14 15 16 15 12 10 9 10 13 18 19 16 15 15 15 16 15 14 15 15 14 14 13 11
0 0 0 0 0 0 0 1 1 1 1 3 6 9 10 9 9 10 12 13 14 19 25 25 22 21 20 18 16 14 11 10 11 13 17 17 15 15 16 16 18 17 15 15 17 17 15 12 10
0 0 0 0 0 0 0 0 1 2 2 3 5 9 11 12 13 14 15 15 17 23 29 31 29 27 22 16 13 14 13 11 11 12 15 17 16 15 16 17 19 19 16 16 18 18 15 11 9
0 0 0 0 0 0 0 1 2 3 4 5 6 8 11 14 16 18 19 18 17 22 28 31 32 29 21 15 13 14 15 13 11 13 18 19 17 15 17 20 21 20 17 15 14 15 15 12 10
0 0 0 0 0 0 0 1 4 4 5 7 8 10 13 16 17 20 21 20 18 19 24 30 34 31 24 19 17 17 17 14 13 15 20 21 20 18 19 22 24 22 17 11 9 10 12 12 11
0 0 0 0 0 0 0 1 3 4 6 10 12 14 17 20 21 21 22 23 20 18 22 31 38 36 31 24 21 21 20 17 15 17 20 21 22 21 21 25 27 23 16 10 8 9 11 13 12
0 0 0 0 0 0 0 1 2 4 7 11 14 16 21 23 22 22 24 25 22 19 22 32 41 42 37 30 27 25 23 21 20 19 20 21 23 24 24 26 27 23 18 14 12 13 15 15 14
0 0 0 0 0 0 0 1 3 5 8 11 13 17 21 24 22 24 27 26 23 22 27 36 43 44 41 37 33 28 24 24 24 22 22 22 23 26 27 25 24 22 20 17 16 17 17 16 14
0 0 0 0 0 0 0 2 4 6 9 11 13 16 20 24 23 23 25 26 24 26 32 39 44 45 42 40 36 29 25 25 25 25 24 22 20 23 26 24 21 20 19 18 18 18 16 15 14
0 0 0 0 0 0 1 3 5 7 10 12 13 14 18 22 22 20 21 23 23 27 33 40 45 45 42 40 35 28 26 26 26 27 27 21 18 19 22 22 19 17 17 18 19 18 16 15 15
0 0 0 0 0 0 1 4 6 9 12 13 12 13 16 19 18 18 19 20 21 25 32 40 45 45 42 38 34 29 28 28 28 29 28 24 19 19 21 21 19 16 16 17 18 19 19 17 16
0 0 0 0 0 0 1 4 7 10 14 15 14 13 16 17 16 17 21 22 22 25 31 38 43 44 42 39 37 35 33 31 29 29 29 27 25 25 25 24 21 18 16 16 17 19 20 18 16
0 0 0 0 0 0 1 4 8 12 15 17 15 14 16 16 15 17 22 24 25 26 29 35 40 43 42 41 41 41 37 33 30 30 30 30 30 29 29 27 24 19 16 16 15 17 20 18 16
Wind_Speed
10 11 9 6 5 1 10 12 12 12 11 11 11 11 13 12 10 9 7 9 11 13 12 11 10 9 9 9 9 9 9 9 9 9 9 9 9 9 9 9 9 9 9 9 8 9 9 10 10
10 11 8 4 3 6 11 12 12 12 10 9 12 13 13 13 11 10 8 8 10 13 11 10 10 9 9 8 8 8 9 9 9 9 9 8 8 8 9 8 8 9 9 9 9 10 10 10 10
13 14 6 3 4 10 11 11 11 10 9 10 12 13 11 10 10 9 9 8 10 11 11 11 10 9 9 8 8 8 8 8 8 8 8 8 8 8 8 8 8 8 8 8 9 10 10 9 9
8 7 5 0 12 13 12 10 10 11 10 11 11 10 11 10 9 9 9 9 10 11 11 11 10 9 9 9 8 8 8 8 8 8 8 8 8 7 7 7 7 7 8 8 9 10 10 9 9
9 4 2 6 13 13 11 10 9 10 11 12 13 12 11 10 10 9 9 9 9 11 12 11 10 9 9 9 8 8 7 7 7 7 7 7 7 7 7 7 7 7 7 8 9 10 10 9 9
5 4 1 8 12 12 10 10 10 12 11 11 12 12 11 10 9 8 8 7 8 10 11 11 11 10 9 9 8 8 7 7 7 7 6 6 6 6 7 7 7 7 7 8 9 9 9 9 8
6 3 4 9 11 12 11 10 10 10 11 9 9 11 10 9 7 8 7 7 7 8 9 10 10 9 9 9 8 8 7 7 6 6 6 6 6 6 6 6 6 7 7 8 8 9 9 9 8
4 3 5 8 10 11 10 10 9 10 10 8 8 9 9 8 7 7 6 7 6 6 6 7 8 8 8 8 9 9 8 8 7 7 6 6 6 6 6 6 6 7 7 8 8 9 8 8 8
5 2 5 7 8 9 9 10 10 10 10 9 10 13 13 12 10 7 6 7 6 6 5 6 6 6 6 8 9 9 9 8 7 6 7 6 4 5 5 5 7 7 7 8 8 9 10 9 9
1 3 5 8 9 8 9 9 8 8 11 12 13 14 13 12 10 8 6 6 6 5 5 5 6 4 4 5 6 5 6 6 4 3 4 3 2 2 5 6 7 7 7 7 8 10 10 7 5
3 5 6 9 9 8 8 9 9 7 10 12 13 13 12 11 9 8 7 7 6 5 5 6 5 4 4 3 2 2 2 3 4 4 3 2 2 2 3 2 4 4 5 3 5 8 5 5 3
4 5 6 7 7 7 8 8 8 9 11 13 13 13 11 9 8 8 8 7 6 5 6 7 6 4 3 2 2 1 2 2 3 3 2 2 2 1 2 1 2 2 2 2 3 3 4 3 3
4 4 5 6 6 7 8 8 9 12 14 14 13 12 10 9 9 8 8 7 7 6 6 7 5 4 3 2 1 1 1 2 3 2 2 2 2 2 2 2 1 2 2 2 2 3 3 3 2
2 2 3 5 5 6 7 7 9 11 13 13 12 11 9 9 9 8 8 7 6 6 6 5 5 5 3 2 1 1 2 2 2 2 3 3 2 3 2 2 1 2 2 2 2 3 2 2 2
1 2 2 5 6 5 6 6 10 12 12 12 11 10 9 9 9 8 8 6 6 6 6 4 5 5 3 2 1 1 2 2 2 3 3 2 3 3 2 2 2 2 2 2 2 2 2 2 3
7 5 3 4 6 6 5 5 10 12 11 11 11 10 9 8 8 8 8 6 6 6 5 3 4 5 3 2 1 1 1 2 2 3 3 3 3 3 2 2 2 2 2 2 2 2 2 2 2
8 6 5 5 4 5 5 5 10 10 11 11 10 10 10 9 8 7 8 7 7 6 5 3 3 4 3 3 2 1 1 2 2 2 2 3 3 3 3 3 2 2 2 2 2 3 2 2 2
5 5 2 3 4 3 4 5 8 10 9 11 11 11 10 10 9 8 7 8 7 7 6 4 4 3 3 2 1 1 1 2 2 2 3 4 3 3 2 2 2 2 2 2 2 3 1 2 2
5 1 0 1 3 2 3 5 7 8 9 9 10 10 11 10 11 9 8 8 7 7 6 4 3 3 2 1 1 1 1 2 2 3 4 4 3 3 3 2 2 3 3 2 2 2 2 2 2
6 4 3 2 3 3 4 4 6 7 8 8 10 10 11 11 11 10 9 8 7 7 6 5 4 3 2 1 1 1 1 2 3 3 4 4 3 2 3 3 2 3 3 2 1 1 1 1 2
8 6 3 2 3 5 5 7 8 8 7 8 10 10 11 12 12 11 9 8 8 8 7 5 4 4 2 2 1 1 1 1 2 3 3 3 3 3 2 3 2 2 2 2 1 0 1 1 1
8 5 3 5 5 4 5 3 6 9 10 10 10 10 11 12 12 12 11 9 8 8 8 6 5 4 3 2 2 2 2 2 2 2 3 3 3 3 3 3 2 2 1 1 1 1 1 1 1
7 6 6 7 7 6 7 3 4 6 9 10 10 10 11 12 12 12 12 10 9 9 9 7 6 4 3 2 2 1 2 2 2 3 3 3 3 3 3 3 2 2 2 1 1 0 1 1 0
7 8 10 10 8 7 6 4 5 7 8 10 11 10 11 12 12 12 12 11 9 9 9 9 7 5 4 3 3 2 2 2 2 3 3 3 3 3 3 3 2 2 1 1 1 1 1 0 1
10 8 6 6 6 5 4 4 4 7 9 8 9 11 12 12 12 12 12 12 10 10 9 9 9 6 5 4 3 3 3 2 2 2 2 2 2 3 2 3 2 2 1 2 1 2 1 1 1
10 10 7 6 5 3 4 3 4 6 7 8 9 9 12 12 11 12 12 12 11 11 10 10 9 7 6 5 4 3 3 3 2 2 1 2 2 3 3 4 3 2 2 1 1 1 2 1 2
10 10 10 9 8 7 3 2 4 6 8 9 10 10 10 11 12 12 12 12 11 11 10 10 10 8 7 6 5 3 3 2 2 2 2 2 2 3 3 4 3 2 2 1 1 1 1 1 1
13 10 8 8 6 6 3 4 4 7 6 8 9 10 9 10 11 12 11 11 10 10 10 10 10 9 7 7 6 6 4 3 2 2 2 2 2 2 2 3 3 2 2 2 1 1 1 1 1
12 12 9 7 7 7 4 1 4 7 6 5 7 9 10 9 10 10 10 10 10 10 10 9 9 9 8 7 6 5 5 5 4 3 3 3 2 2 2 2 2 2 2 2 1 2 1 1 1
11 11 9 7 6 7 5 1 3 4 6 5 5 7 7 7 8 9 10 10 9 9 9 8 8 7 7 7 6 6 5 5 5 4 4 3 3 3 3 2 2 2 2 2 2 2 2 1 1
Wind_Direction
204 216 218 238 246 209 63 65 63 58 55 52 51 59 58 48 56 81 94 91 103 109 116 115 108 104 102 102 102 102 100 97 95 98 100 101 102 106 111 114 117 120 122 122 124 127 129 131 133
224 225 226 243 269 66 64 65 64 63 67 65 66 67 69 68 76 92 100 98 103 108 112 111 112 111 109 107 105 103 101 99 101 103 106 108 108 108 115 119 121 125 126 126 127 130 131 133 137
249 245 247 235 46 59 65 68 74 75 72 70 70 65 64 73 80 96 108 111 103 105 110 113 116 116 116 113 110 107 103 103 105 107 109 111 114 113 115 118 119 121 125 127 128 131 131 133 138
248 242 239 165 66 66 69 73 80 81 74 71 73 72 74 77 90 106 116 111 107 107 109 115 120 118 119 118 116 113 111 111 112 112 112 114 117 118 118 120 122 125 127 128 130 132 133 135 139
243 270 257 74 74 75 73 75 79 79 77 78 81 86 85 86 97 104 112 108 105 106 114 123 127 125 123 122 123 120 118 119 118 118 118 121 123 122 123 123 124 127 130 132 135 140 139 142 145
254 256 330 69 76 76 76 74 74 78 84 89 92 97 95 102 102 105 101 98 103 107 116 128 136 135 132 131 130 127 126 126 126 127 128 129 129 128 129 128 129 133 137 137 140 142 146 150 155
260 284 53 74 80 77 69 70 75 81 83 81 98 103 109 112 110 106 109 108 103 105 117 134 141 142 143 141 142 139 136 136 138 139 139 140 138 136 133 128 133 142 146 147 148 149 153 158 165
268 316 42 70 75 79 77 75 81 84 85 93 92 99 119 127 126 120 113 103 105 107 110 117 131 143 147 147 154 152 149 151 153 155 156 155 153 149 144 141 144 151 154 155 156 157 161 168 174
265 355 34 63 78 85 92 87 90 99 99 85 82 104 126 135 132 125 116 115 114 105 113 121 119 135 137 138 144 157 160 164 167 166 172 169 167 154 148 143 150 156 162 166 169 169 169 174 185
201 60 56 68 82 96 99 98 96 102 105 99 95 104 123 132 132 133 135 128 122 121 123 115 114 120 121 124 140 164 156 154 167 144 160 164 153 128 127 139 151 159 166 170 182 180 177 182 184
73 77 66 76 83 94 98 99 101 97 108 111 119 126 134 137 137 138 134 126 123 132 126 110 99 85 89 101 138 137 129 149 144 135 141 135 130 123 126 140 158 171 172 175 167 171 180 186 172
58 72 75 89 93 96 93 91 90 92 99 114 122 130 132 140 139 136 128 123 124 116 105 103 101 84 65 69 88 119 128 137 121 126 133 128 116 113 122 129 129 151 158 145 137 149 157 157 161
56 65 85 90 93 94 94 99 99 98 107 116 124 129 131 135 133 126 125 122 117 113 104 103 105 97 82 61 24 107 95 96 109 110 113 104 114 97 97 99 109 127 124 129 126 122 133 142 154
60 79 108 113 116 119 110 112 110 107 115 121 126 130 135 131 130 120 116 117 115 114 110 107 109 103 99 98 77 74 106 105 111 107 103 109 110 107 108 117 118 121 112 95 111 129 131 128 124
194 197 184 154 151 143 116 116 119 124 128 131 134 134 129 129 123 118 117 119 121 116 110 117 117 107 105 106 115 108 123 130 129 118 110 113 111 114 120 113 111 99 103 110 103 87 107 119 121
234 212 210 168 160 146 137 126 129 138 140 140 143 138 137 135 131 127 128 131 121 115 107 106 110 108 107 93 70 62 97 108 107 114 121 120 109 116 121 108 113 117 116 111 113 104 89 95 106
242 228 196 166 173 143 141 138 136 153 150 147 147 146 151 147 146 140 140 134 120 110 110 103 83 102 112 105 102 111 111 105 103 110 121 123 120 115 112 111 114 121 104 96 98 94 101 120 110
240 237 180 143 146 125 127 142 150 164 158 151 156 155 157 154 153 148 146 137 129 121 114 108 93 84 95 105 105 126 128 121 118 111 107 109 112 114 109 121 111 108 99 90 92 104 108 119 124
266 261 226 187 162 166 155 167 166 171 164 152 155 155 156 155 151 151 153 141 132 122 119 114 107 97 88 80 111 123 120 120 120 115 113 116 114 113 112 95 103 96 95 86 108 119 140 142 133
258 253 234 204 174 213 173 174 175 187 173 161 155 155 156 154 151 150 150 144 135 128 125 125 128 122 119 125 140 130 108 117 109 104 109 107 115 121 123 120 115 108 114 111 106 129 158 149 145
248 252 242 258 234 229 205 179 184 189 175 167 154 158 160 158 157 153 155 154 149 145 144 143 134 128 134 147 132 98 99 77 87 104 105 101 107 114 103 107 108 118 137 136 144 165 181 172 180
249 255 241 243 247 244 242 194 184 181 177 172 164 165 162 158 156 157 160 160 157 151 147 135 134 133 135 150 145 145 128 119 114 108 107 112 113 110 112 115 120 117 107 122 196 104 287 209 191
260 265 256 251 252 247 237 224 187 196 186 173 170 169 163 159 160 160 162 161 162 155 148 143 138 136 136 141 131 144 120 121 116 116 120 123 127 125 123 124 129 131 133 137 129 35 343 308 271
256 260 259 252 249 251 240 220 181 195 183 175 170 168 164 161 159 158 158 157 159 156 151 147 142 142 147 152 139 122 113 107 117 131 144 152 138 132 133 130 123 125 143 164 180 209 204 271 312
239 248 255 248 236 243 243 228 166 162 159 164 162 164 163 159 157 157 156 157 160 159 155 147 146 151 158 155 147 138 136 140 158 165 158 148 135 131 132 120 120 133 164 169 177 173 207 239 242
238 246 252 265 272 259 224 225 161 144 149 141 145 151 151 154 156 158 158 159 163 160 155 151 149 155 160 159 155 146 156 185 178 163 155 131 124 126 130 131 140 153 165 160 178 173 200 207 232
245 251 258 261 263 263 233 197 153 149 151 149 150 151 152 154 157 158 161 163 163 161 159 159 154 156 160 162 156 157 168 179 129 130 143 118 121 135 131 140 141 142 143 153 153 154 187 172 184
246 257 265 265 276 273 223 206 180 156 162 156 153 152 154 154 156 156 157 158 158 157 156 156 158 159 161 165 172 168 170 164 151 147 123 115 103 100 120 127 137 142 141 145 145 134 144 148 162
229 241 253 278 281 279 270 153 152 166 163 150 150 148 153 158 157 155 156 157 157 157 157 155 157 160 167 172 174 163 165 168 166 169 151 138 132 141 144 138 146 149 144 137 145 153 159 161 158
246 246 251 258 271 282 287 189 134 153 136 139 127 127 136 149 152 151 152 154 156 157 155 154 157 164 169 167 167 169 164 167 173 171 163 160 159 164 158 153 158 159 148 159 176 181 173 163 147